Regional Weather Roundup
Issued by NWS

Home | Current Version | Previous Version | Text Only | Print | Product List | Glossary Off
Versions: 1 2 3 4 5 6 7 8 9 10 11 12 13 14 15 16 17 18 19 20 21 22 23 24 25 26 27 28 29 30 31 32 33 34 35 36 37 38 39 40 41 42 43 44 45 46 47 48 49 50

000
ASUS45 KCYS 162210
RWRWY

WYOMING REGIONAL WEATHER ROUNDUP
NATIONAL WEATHER SERVICE CHEYENNE WY
300 PM MST THU NOV 16 2017

NOTE:  "FAIR" INDICATES FEW OR NO CLOUDS BELOW 12,000 FEET
WITH NO SIGNIFICANT WEATHER AND/OR OBSTRUCTIONS TO VISIBILITY.

WYZ001-162300-
YELLOWSTONE NATIONAL PARK

CITY           SKY/WX    TMP DP  RH WIND       PRES   REMARKS
LK YELLOWSTONE   N/A     33  32  96 VRB5      29.67R WCI  29
W YELLOWSTONE  NOT AVBL

$$
WYZ002>013-054>058-071-098>099-162300-
NORTHERN WYOMING

CITY           SKY/WX    TMP DP  RH WIND       PRES   REMARKS
JACKSON        LGT RAIN  38  35  89 S22       29.71R WCI  27
CODY           FAIR      50  36  58 SW17      29.54S
GREYBULL       FAIR      62  31  31 SW7       29.50R
WORLAND        FAIR      61  34  36 SW18G29   29.53S
SHERIDAN       FAIR      64  30  27 SW26G40   29.44R
BUFFALO        FAIR      59  28  30 W40G58    29.47R
GILLETTE       FAIR      65  28  24 SW28G39   29.51R
HULETT         FAIR      63  28  27 SW10      29.53S
NEWCASTLE      FAIR      63  23  22 W14G20    29.61R

$$
WYZ014>020-022>026-101>103-162300-
CENTRAL WYOMING

CITY           SKY/WX    TMP DP  RH WIND       PRES   REMARKS
BIG PINEY      FAIR      44  32  62 W22       29.79R
PINEDALE       CLOUDY    43  32  65 SW22G30   29.79S
DUBOIS         DRIZZLE   37  32  81 W20G30    29.67S WCI  27
LANDER         CLOUDY    47  35  63 SW29G41   29.61R
RIVERTON       FAIR      55  31  39 SW21      29.66F
CASPER         FAIR      60  20  21 SW26G33   29.65F
DOUGLAS        FAIR      64  23  21 W32G44    29.62S

$$
WYZ021-027>030-104>119-162300-
SOUTHERN WYOMING

CITY           SKY/WX    TMP DP  RH WIND       PRES   REMARKS
EVANSTON       PTSUNNY   48  33  56 SW23      29.81F
KEMMERER       LGT RAIN  43  32  65 W20       29.82R
FORT BRIDGER   MOCLDY    51  32  49 W23G33    29.84F
ROCK SPRINGS   CLOUDY    51  30  44 W25G36    29.81S
DIXON          FAIR      56  21  25 SW25G33   29.89S
RAWLINS        FAIR      54  18  24 SW23G43   29.80S
SARATOGA       FAIR      54  21  28 SW26G38   29.83S
LARAMIE        FAIR      57  22  25 SW26G47   29.82R
CHEYENNE       FAIR      63  21  20 VRB3      29.78R
TORRINGTON     FAIR      71  25  17 W10       29.63S
PINE BLUFFS    FAIR      64  21  19 S12G20    29.74R

$$



USA.gov is the U.S. government's official web portal to all federal, state and local government web resources and services.